Location: Newark
(23.3970°S, 47.6010°W)
Time: 12:43:54
(UTC+00:00)

deb Explorer IX - Pass Details

Date: 26 February 2020
Orbit: 547 x 1100 km, 38.8° (Epoch: 29 March)

Event Time Altitude Azimuth Distance (km) Brightness Sun altitude
Rises 01:38:56 0° 250° (WSW) 3,642 ? -48.8°
Reaches altitude 10° 01:42:06 10° 235° (SW) 2,781 ? -49.2°
Enters shadow 01:43:21 14° 227° (SW) 2,507 ? -49.4°
Maximum altitude 01:47:22 23° 185° (S) 2,093 - -50.0°
Drops below altitude 10° 01:52:56 10° 135° (SE) 2,955 - -50.8°
Sets 01:56:26 0° 121° (ESE) 3,925 - -51.3°
